Regional Weather Roundup
Issued by NWS Newport/Morehead, NC

Current Version | Previous Version | Graphics & Text | Print | Product List | Glossary On
Versions: 1 2 3 4 5 6 7 8 9 10 11 12 13 14 15 16 17 18 19 20 21 22 23 24 25 26 27 28 29 30 31 32 33 34 35 36 37 38 39 40 41 42 43 44 45 46 47 48 49 50
000 ASUS42 KMHX 302313 RWRMHX WEATHER ROUNDUP FOR EASTERN NORTH CAROLINA NATIONAL WEATHER SERVICE NEWPORT/MOREHEAD CITY NC 700 PM EDT SAT JUL 30 2016 NOTE: "FAIR" INDICATES FEW OR NO CLOUDS BELOW 12,000 FEET WITH NO SIGNIFICANT WEATHER AND/OR OBSTRUCTIONS TO VISIBILITY NCZ015>017-031-032-045>047-102-103-310000- NORTH COAST CITY SKY/WX TMP DP RH WIND PRES REMARKS EDENTON CLOUDY N/A N/A N/A NE5 29.99R ELIZABETH CITY LGT RAIN 75 73 93 NW6 29.99R KITTY HAWK DRIZZLE 74 74 100 CALM 29.96F MANTEO LGT RAIN 74 74 100 CALM 29.98F $$ NCZ045>047-081-094-103-104-310000- CENTRAL COAST CITY SKY/WX TMP DP RH WIND PRES REMARKS FRISCO LGT RAIN 79 75 87 SE7 29.97F $$ NCZ095-097-098-100-101-310000- SOUTHERN COAST CITY SKY/WX TMP DP RH WIND PRES REMARKS BEAUFORT CLOUDY 85 83 94 S12 29.95S HX 104 CEDAR ISLAND NOT AVBL JACKSONVILLE CLOUDY 90 76 63 S7 29.92S HX 101 PINEY ISLAND NOT AVBL WILMINGTON MOSUNNY 92 71 50 SW16 29.94F $$ NCZ011>013-027>030-043-044-078>080-089-090>093-098-310000- COASTAL PLAIN CITY SKY/WX TMP DP RH WIND PRES REMARKS AHOSKIE CLOUDY 73 72 97 E3 29.96F CLINTON SUNNY 94 73 49 SW5 29.92F HX 103 ELIZABETHTOWN CLOUDY 93 73 51 S9 29.94S HX 101 GOLDSBORO MOSUNNY 95 71 45 W9 29.90F HX 101 GREENVILLE CLOUDY 82 77 83 SE6 29.96R HAVELOCK CLOUDY 85 79 82 S9 29.95S KENANSVILLE NOT AVBL KINSTON PTSUNNY 84 77 79 SE5 29.94S NEW BERN CLOUDY 82 77 84 SE3 29.95S RICHLANDS MOSUNNY 93 75 55 S14 29.93R HX 104 ROCKY MOUNT CLOUDY 82 76 81 NE12G23 29.93R WASHINGTON CLOUDY 78 75 88 SE5 29.95R WHITEVILLE SUNNY 90 76 62 S6 29.94F HX 101 $$ AMZ130-135-150-152-154-156-158-170-250-252-270-ANZ085-086-088-633-658-670-310000- MARINE OBSERVATIONS STATION/POSITION TIME TEMP WIND PRES WAVE SWELL AIR SEA DIR/SP/G HT/PER HT/PER (UTC) (F) (DEG/KT/KT) (MB) (FT/S) (FT/S) CHESAPEAKE LIGHT NOT AVBL 64 E VA BEACH 2250 82 83 230/ 8/ 10 1014.5 2/ 8 2/ 8 DUCK 2200 76 77 N/A 2 E DUCK 2211 81 N/A 2/ 6 OREGON INLET 2200 81 81 N/A 13E OREGON INLT 2300 80 N/A 3/ 3 2/ 6 HATTERAS CG 2200 80 83 N/A DIAMOND BUOY 2250 84 85 190/ 14/ 17 1014.7 3/ 6 2/ 6 CAPE LOOKOUT 2300 85 200/ 13/ 16 1014.0 BEAUFORT LAB 2200 85 83 N/A 30 SE NEW RVR IN 2208 86 85 190/ 16/ 19 1014.2 30 SE NEW RVR IN 2225 85 N/A 3/ 6 27 SE WRIGHTSVLE 2208 86 85 200/ 14/ 17 1014.6 5 SE WRIGHTSVLE 2208 84 81 210/ 8/ 12 1014.9 225 S CAPE HAT 2250 85 86 170/ 8/ 10 1017.5 2/ 5 2/ 5 41 SE CHARLESTON 2250 86 86 200/ 14/ 16 1014.5 2/ 5 2/ 8 $$

USA.gov is the U.S. government's official web portal to all federal, state and local government web resources and services.